Time,TemperatureF,DewpointF,PressureIn,WindDirection,WindDirectionDegrees,WindSpeedMPH,WindSpeedGustMPH,Humidity,HourlyPrecipIn,Conditions,Clouds,dailyrainin,SoftwareType,DateUTC
2013-10-21 00:03:00,52.5,35.4,29.96,SW,226,0.0,0.0,52,0.00,CLR,,0.00,WeatherDisplay:10.37,2013-10-21 05:03:00,
2013-10-21 00:08:00,52.5,35.4,29.96,SW,226,0.0,0.0,52,0.00,CLR,,0.00,WeatherDisplay:10.37,2013-10-21 05:08:00,
2013-10-21 02:00:00,51.8,34.7,29.96,SW,227,0.0,0.0,52,0.00,CLR,,0.00,WeatherDisplay:10.37,2013-10-21 07:00:00,
2013-10-21 02:05:00,51.8,34.7,29.96,SW,227,0.0,0.0,52,0.00,CLR,,0.00,WeatherDisplay:10.37,2013-10-21 07:05:00,
2013-10-21 02:10:00,51.6,35.0,29.96,SW,227,0.0,0.0,53,0.00,CLR,,0.00,WeatherDisplay:10.37,2013-10-21 07:10:00,
2013-10-21 02:15:00,51.8,35.2,29.96,SW,227,0.0,0.0,53,0.00,CLR,,0.00,WeatherDisplay:10.37,2013-10-21 07:15:00,
2013-10-21 02:20:00,51.8,35.2,29.96,SW,227,0.0,0.0,53,0.00,CLR,,0.00,WeatherDisplay:10.37,2013-10-21 07:20:00,
2013-10-21 02:25:00,51.8,35.2,29.96,SW,227,0.0,0.0,53,0.00,CLR,,0.00,WeatherDisplay:10.37,2013-10-21 07:25:00,
2013-10-21 02:30:00,51.8,35.2,29.96,SW,227,0.0,0.0,53,0.00,CLR,,0.00,WeatherDisplay:10.37,2013-10-21 07:30:00,
2013-10-21 02:35:00,52.0,35.4,29.96,SW,220,0.0,0.0,53,0.00,CLR,,0.00,WeatherDisplay:10.37,2013-10-21 07:35:00,
2013-10-21 02:40:00,52.0,35.4,29.96,SW,220,0.0,0.0,53,0.00,CLR,,0.00,WeatherDisplay:10.37,2013-10-21 07:40:00,
2013-10-21 02:45:00,52.0,35.4,29.96,SW,220,0.0,0.0,53,0.00,CLR,,0.00,WeatherDisplay:10.37,2013-10-21 07:45:00,
2013-10-21 02:50:00,52.0,35.4,29.96,SW,220,0.0,0.0,53,0.00,CLR,,0.00,WeatherDisplay:10.37,2013-10-21 07:50:00,
2013-10-21 02:55:00,52.0,35.4,29.96,SW,220,0.0,0.0,53,0.00,CLR,,0.00,WeatherDisplay:10.37,2013-10-21 07:55:00,
2013-10-21 03:00:00,51.8,35.2,29.96,SW,220,0.0,0.0,53,0.00,CLR,,0.00,WeatherDisplay:10.37,2013-10-21 08:00:00,
2013-10-21 03:05:00,51.8,35.2,29.96,SW,220,0.0,0.0,53,0.00,CLR,,0.00,WeatherDisplay:10.37,2013-10-21 08:05:00,
2013-10-21 03:10:00,51.8,35.2,29.96,SW,220,0.0,0.0,53,0.00,CLR,,0.00,WeatherDisplay:10.37,2013-10-21 08:10:00,
2013-10-21 03:15:00,51.6,35.0,29.96,SW,220,0.0,0.0,53,0.00,CLR,,0.00,WeatherDisplay:10.37,2013-10-21 08:15:00,
2013-10-21 06:12:00,50.7,37.3,29.96,SSW,205,0.0,0.0,60,0.00,CLR,,0.00,WeatherDisplay:10.37,2013-10-21 11:12:00,
2013-10-21 06:17:00,50.9,37.5,29.96,SSW,205,0.0,0.0,60,0.00,CLR,,0.00,WeatherDisplay:10.37,2013-10-21 11:17:00,
2013-10-21 06:22:00,50.5,37.2,29.96,SSW,205,0.0,0.0,60,0.00,CLR,,0.00,WeatherDisplay:10.37,2013-10-21 11:22:00,
2013-10-21 06:27:00,50.5,37.6,29.96,SSW,205,0.0,0.0,61,0.00,CLR,,0.00,WeatherDisplay:10.37,2013-10-21 11:27:00,
2013-10-21 06:32:00,50.5,37.6,29.96,SSW,205,0.0,0.0,61,0.00,CLR,,0.00,WeatherDisplay:10.37,2013-10-21 11:32:00,
2013-10-21 06:37:00,50.4,37.8,29.96,SSW,205,0.0,0.0,62,0.00,CLR,,0.00,WeatherDisplay:10.37,2013-10-21 11:37:00,
2013-10-21 06:42:00,50.5,38.0,29.96,SSW,205,0.0,0.0,62,0.00,CLR,,0.00,WeatherDisplay:10.37,2013-10-21 11:42:00,
2013-10-21 06:47:00,50.7,38.2,29.99,SSW,205,0.0,0.0,62,0.00,CLR,,0.00,WeatherDisplay:10.37,2013-10-21 11:47:00,
2013-10-21 06:52:00,50.5,38.0,29.99,SSW,205,0.0,0.0,62,0.00,CLR,,0.00,WeatherDisplay:10.37,2013-10-21 11:52:00,
2013-10-21 06:57:00,50.9,38.3,29.99,SSW,205,0.0,0.0,62,0.00,CLR,,0.00,WeatherDisplay:10.37,2013-10-21 11:57:00,
2013-10-21 07:02:00,51.1,38.9,29.99,SSW,205,0.0,0.0,63,0.00,CLR,,0.00,WeatherDisplay:10.37,2013-10-21 12:02:00,
2013-10-21 07:07:00,51.3,39.1,29.99,SSW,205,0.0,0.0,63,0.00,CLR,,0.00,WeatherDisplay:10.37,2013-10-21 12:07:00,
2013-10-21 07:12:00,51.3,39.1,29.99,SSW,205,0.0,0.0,63,0.00,CLR,,0.00,WeatherDisplay:10.37,2013-10-21 12:12:00,
2013-10-21 07:17:00,51.3,39.1,29.99,SSW,205,0.0,0.0,63,0.00,CLR,,0.00,WeatherDisplay:10.37,2013-10-21 12:17:00,
2013-10-21 07:22:00,51.3,39.1,29.99,SSW,205,0.0,0.0,63,0.00,CLR,,0.00,WeatherDisplay:10.37,2013-10-21 12:22:00,
2013-10-21 07:23:00,51.3,39.1,29.99,SSW,205,0.0,0.0,63,0.00,CLR,,0.00,WeatherDisplay:10.37,2013-10-21 12:23:00,
2013-10-21 17:29:00,51.3,39.1,29.99,SSW,205,0.0,0.0,63,0.00,CLR,,0.00,WeatherDisplay:10.37,2013-10-21 22:29:00,
2013-10-21 17:34:00,56.8,43.5,29.99,North,353,0.0,0.0,61,0.04,RA,,0.04,WeatherDisplay:10.37,2013-10-21 22:34:00,
2013-10-21 17:39:00,56.7,43.4,29.99,North,353,0.0,0.0,61,0.04,RA,,0.04,WeatherDisplay:10.37,2013-10-21 22:39:00,
2013-10-21 17:44:00,56.3,43.4,29.99,North,353,0.0,0.0,62,0.04,RA,,0.04,WeatherDisplay:10.37,2013-10-21 22:44:00,
2013-10-21 17:51:00,56.3,43.9,29.99,NW,306,0.0,0.0,63,0.04,,,0.04,WeatherDisplay:10.37,2013-10-21 22:51:00,
2013-10-21 17:56:00,56.3,43.9,29.99,North,0,0.0,0.0,63,0.04,CLR,,0.04,WeatherDisplay:10.37,2013-10-21 22:56:00,
2013-10-21 18:01:00,56.3,43.9,29.99,NNE,25,0.0,0.0,63,0.04,CLR,,0.04,WeatherDisplay:10.37,2013-10-21 23:01:00,
2013-10-21 18:06:00,55.9,43.9,29.99,NNE,29,0.0,0.0,64,0.04,CLR,,0.04,WeatherDisplay:10.37,2013-10-21 23:06:00,
2013-10-21 18:11:00,55.8,43.8,29.99,NE,48,0.0,0.0,64,0.04,CLR,,0.04,WeatherDisplay:10.37,2013-10-21 23:11:00,
2013-10-21 18:16:00,55.9,44.3,29.99,NNW,348,0.0,2.3,65,0.04,CLR,,0.04,WeatherDisplay:10.37,2013-10-21 23:16:00,
2013-10-21 18:21:00,55.9,44.3,30.02,NNW,348,0.0,0.0,65,0.04,CLR,,0.04,WeatherDisplay:10.37,2013-10-21 23:21:00,
2013-10-21 18:26:00,56.1,44.9,30.02,NNW,348,0.0,0.0,66,0.08,RA,,0.08,WeatherDisplay:10.37,2013-10-21 23:26:00,
2013-10-21 18:31:00,55.6,44.0,30.02,NNW,348,0.0,0.0,65,0.08,RA,,0.08,WeatherDisplay:10.37,2013-10-21 23:31:00,
2013-10-21 18:36:00,55.2,44.1,30.02,NNW,348,0.0,0.0,66,0.08,,,0.08,WeatherDisplay:10.37,2013-10-21 23:36:00,
2013-10-21 18:41:00,55.2,44.4,30.02,NNW,348,0.0,0.0,67,0.04,CLR,,0.08,WeatherDisplay:10.37,2013-10-21 23:41:00,
2013-10-21 18:46:00,55.2,44.4,30.02,NNW,348,0.0,0.0,67,0.04,CLR,,0.08,WeatherDisplay:10.37,2013-10-21 23:46:00,
2013-10-21 18:51:00,55.4,45.0,30.02,NNW,348,0.0,0.0,68,0.08,RA,,0.12,WeatherDisplay:10.37,2013-10-21 23:51:00,
2013-10-21 18:56:00,55.6,45.2,30.02,NNW,348,0.0,0.0,68,0.08,RA,,0.12,WeatherDisplay:10.37,2013-10-21 23:56:00,
2013-10-21 19:01:00,55.8,45.4,30.02,NNW,348,0.0,0.0,68,0.08,,,0.12,WeatherDisplay:10.37,2013-10-22 00:01:00,
2013-10-21 19:06:00,55.9,45.9,30.02,NNW,348,0.0,0.0,69,0.08,CLR,,0.12,WeatherDisplay:10.37,2013-10-22 00:06:00,
2013-10-21 19:11:00,56.1,46.5,30.02,NNW,348,0.0,0.0,70,0.08,CLR,,0.12,WeatherDisplay:10.37,2013-10-22 00:11:00,
2013-10-21 19:16:00,56.3,46.6,30.02,NNW,348,0.0,0.0,70,0.12,RA,,0.16,WeatherDisplay:10.37,2013-10-22 00:16:00,
2013-10-21 19:21:00,56.3,47.0,30.02,NNW,348,0.0,0.0,71,0.12,RA,,0.16,WeatherDisplay:10.37,2013-10-22 00:21:00,
2013-10-21 19:26:00,56.5,47.2,30.02,NNW,348,0.0,0.0,71,0.08,,,0.16,WeatherDisplay:10.37,2013-10-22 00:26:00,
2013-10-21 19:31:00,56.5,47.2,30.02,NNW,348,0.0,0.0,71,0.08,CLR,,0.16,WeatherDisplay:10.37,2013-10-22 00:31:00,
2013-10-21 19:36:00,56.5,47.2,30.02,NNW,348,0.0,0.0,71,0.08,CLR,,0.16,WeatherDisplay:10.37,2013-10-22 00:36:00,
2013-10-21 19:41:00,56.3,47.0,30.02,NNW,348,0.0,0.0,71,0.08,CLR,,0.16,WeatherDisplay:10.37,2013-10-22 00:41:00,
2013-10-21 19:46:00,56.1,46.8,30.02,NNW,348,0.0,0.0,71,0.08,CLR,,0.16,WeatherDisplay:10.37,2013-10-22 00:46:00,
2013-10-21 19:51:00,55.9,47.0,30.02,NNW,348,0.0,0.0,72,0.04,CLR,,0.16,WeatherDisplay:10.37,2013-10-22 00:51:00,
2013-10-21 19:56:00,55.8,46.9,30.02,NNW,348,0.0,0.0,72,0.04,CLR,,0.16,WeatherDisplay:10.37,2013-10-22 00:56:00,
2013-10-21 20:01:00,55.8,46.9,30.02,NNW,348,0.0,0.0,72,0.04,CLR,,0.16,WeatherDisplay:10.37,2013-10-22 01:01:00,
2013-10-21 20:06:00,55.8,47.2,30.02,NNW,348,0.0,0.0,73,0.04,CLR,,0.16,WeatherDisplay:10.37,2013-10-22 01:06:00,
2013-10-21 20:11:00,55.6,47.1,30.02,NNW,348,0.0,0.0,73,0.04,CLR,,0.16,WeatherDisplay:10.37,2013-10-22 01:11:00,
2013-10-21 20:16:00,55.8,47.2,30.02,NNW,348,0.0,0.0,73,0.00,CLR,,0.16,WeatherDisplay:10.37,2013-10-22 01:16:00,
2013-10-21 20:21:00,55.9,47.8,30.02,NNW,348,0.0,0.0,74,0.00,CLR,,0.16,WeatherDisplay:10.37,2013-10-22 01:21:00,
2013-10-21 20:26:00,56.1,47.9,30.02,NNW,348,0.0,0.0,74,0.00,CLR,,0.16,WeatherDisplay:10.37,2013-10-22 01:26:00,
2013-10-21 20:31:00,55.9,47.8,30.02,NNW,348,0.0,0.0,74,0.00,CLR,,0.16,WeatherDisplay:10.37,2013-10-22 01:31:00,
2013-10-21 20:36:00,55.8,47.6,30.02,NNW,348,0.0,0.0,74,0.00,CLR,,0.16,WeatherDisplay:10.37,2013-10-22 01:36:00,
2013-10-21 20:41:00,55.4,47.2,30.02,NNW,348,0.0,0.0,74,0.00,CLR,,0.16,WeatherDisplay:10.37,2013-10-22 01:41:00,
2013-10-21 20:46:00,55.6,47.8,30.02,NNW,348,0.0,0.0,75,0.00,CLR,,0.16,WeatherDisplay:10.37,2013-10-22 01:46:00,
2013-10-21 20:51:00,55.8,48.0,30.02,NNW,348,0.0,0.0,75,0.00,CLR,,0.16,WeatherDisplay:10.37,2013-10-22 01:51:00,
2013-10-21 20:54:00,55.6,47.8,30.02,NNW,348,0.0,0.0,75,0.00,CLR,,0.16,WeatherDisplay:10.37,2013-10-22 01:54:00,
2013-10-21 20:59:00,55.6,47.8,30.02,NNW,348,0.0,0.0,75,0.00,CLR,,0.16,WeatherDisplay:10.37,2013-10-22 01:59:00,
2013-10-21 21:04:00,55.6,48.1,30.02,NNW,348,0.0,0.0,76,0.00,CLR,,0.16,WeatherDisplay:10.37,2013-10-22 02:04:00,
2013-10-21 21:09:00,55.8,48.7,30.02,NNW,348,0.0,0.0,77,0.00,CLR,,0.16,WeatherDisplay:10.37,2013-10-22 02:09:00,
2013-10-21 21:14:00,55.9,49.2,30.02,NNW,348,0.0,0.0,78,0.00,CLR,,0.16,WeatherDisplay:10.37,2013-10-22 02:14:00,
2013-10-21 21:19:00,55.8,48.7,30.02,NNW,348,0.0,0.0,77,0.00,CLR,,0.16,WeatherDisplay:10.37,2013-10-22 02:19:00,
2013-10-21 21:24:00,55.6,48.5,30.02,NNW,348,0.0,0.0,77,0.00,CLR,,0.16,WeatherDisplay:10.37,2013-10-22 02:24:00,
2013-10-21 21:29:00,55.2,48.1,30.02,NNW,348,0.0,0.0,77,0.00,CLR,,0.16,WeatherDisplay:10.37,2013-10-22 02:29:00,
2013-10-21 21:39:00,55.2,49.2,30.02,NNW,348,0.0,0.0,80,0.00,CLR,,0.16,WeatherDisplay:10.37,2013-10-22 02:39:00,
2013-10-21 21:44:00,55.2,49.2,30.02,NNW,348,0.0,0.0,80,0.00,CLR,,0.16,WeatherDisplay:10.37,2013-10-22 02:44:00,
2013-10-21 21:49:00,55.0,49.0,30.02,NNW,348,0.0,0.0,80,0.00,CLR,,0.16,WeatherDisplay:10.37,2013-10-22 02:49:00,
2013-10-21 21:54:00,54.7,48.3,30.02,NNW,348,0.0,0.0,79,0.00,CLR,,0.16,WeatherDisplay:10.37,2013-10-22 02:54:00,
2013-10-21 21:59:00,54.7,49.0,30.02,NNW,348,0.0,0.0,81,0.00,CLR,,0.16,WeatherDisplay:10.37,2013-10-22 02:59:00,
2013-10-21 22:04:00,54.7,49.3,30.02,NNW,348,0.0,0.0,82,0.00,CLR,,0.16,WeatherDisplay:10.37,2013-10-22 03:04:00,
2013-10-21 22:09:00,54.7,49.6,30.02,NNW,348,0.0,0.0,83,0.00,CLR,,0.16,WeatherDisplay:10.37,2013-10-22 03:09:00,
2013-10-21 22:14:00,54.9,50.1,30.02,NNW,348,0.0,0.0,84,0.00,CLR,,0.16,WeatherDisplay:10.37,2013-10-22 03:14:00,
2013-10-21 22:19:00,54.9,50.4,30.02,NNW,348,0.0,0.0,85,0.00,CLR,,0.16,WeatherDisplay:10.37,2013-10-22 03:19:00,
2013-10-21 22:24:00,55.0,50.9,30.02,NNW,348,0.0,0.0,86,0.00,CLR,,0.16,WeatherDisplay:10.37,2013-10-22 03:24:00,
2013-10-21 22:29:00,55.0,50.9,30.02,NNW,348,0.0,0.0,86,0.00,CLR,,0.16,WeatherDisplay:10.37,2013-10-22 03:29:00,
2013-10-21 22:34:00,55.0,51.2,30.02,WNW,291,0.0,2.3,87,0.00,CLR,,0.16,WeatherDisplay:10.37,2013-10-22 03:34:00,
2013-10-21 22:39:00,55.0,51.2,30.02,WNW,291,0.0,0.0,87,0.00,CLR,,0.16,WeatherDisplay:10.37,2013-10-22 03:39:00,
2013-10-21 22:44:00,55.0,51.5,30.02,WNW,291,0.0,0.0,88,0.00,CLR,,0.16,WeatherDisplay:10.37,2013-10-22 03:44:00,
2013-10-21 22:49:00,55.0,51.5,30.05,WNW,291,0.0,0.0,88,0.00,CLR,,0.16,WeatherDisplay:10.37,2013-10-22 03:49:00,
2013-10-21 22:54:00,54.9,51.4,30.05,WNW,291,0.0,0.0,88,0.00,CLR,,0.16,WeatherDisplay:10.37,2013-10-22 03:54:00,
2013-10-21 22:59:00,54.9,51.4,30.05,WNW,291,0.0,0.0,88,0.00,CLR,,0.16,WeatherDisplay:10.37,2013-10-22 03:59:00,
2013-10-21 23:01:00,54.9,51.4,30.05,WNW,291,0.0,0.0,88,0.00,RA,,0.00,WeatherDisplay:10.37,2013-10-22 04:01:00,
2013-10-21 23:02:00,54.9,51.4,30.05,WNW,291,0.0,0.0,88,0.00,RA,,0.00,WeatherDisplay:10.37,2013-10-22 04:02:00,
2013-10-21 23:03:00,54.7,51.2,30.05,WNW,291,0.0,0.0,88,0.00,RA,,0.00,WeatherDisplay:10.37,2013-10-22 04:03:00,
2013-10-21 23:08:00,54.7,51.2,30.05,WNW,291,0.0,0.0,88,0.00,RA,,0.00,WeatherDisplay:10.37,2013-10-22 04:08:00,
2013-10-21 23:13:00,54.5,51.3,30.05,WNW,291,0.0,0.0,89,0.00,CLR,,0.00,WeatherDisplay:10.37,2013-10-22 04:13:00,
2013-10-21 23:18:00,54.5,51.3,30.05,WNW,291,0.0,0.0,89,0.00,CLR,,0.00,WeatherDisplay:10.37,2013-10-22 04:18:00,
2013-10-21 23:23:00,54.3,51.1,30.05,WNW,291,0.0,0.0,89,0.00,CLR,,0.00,WeatherDisplay:10.37,2013-10-22 04:23:00,
2013-10-21 23:28:00,53.8,50.3,30.05,WNW,291,0.0,0.0,88,0.00,CLR,,0.00,WeatherDisplay:10.37,2013-10-22 04:28:00,
2013-10-21 23:33:00,53.6,50.1,30.05,WNW,291,0.0,0.0,88,0.00,CLR,,0.00,WeatherDisplay:10.37,2013-10-22 04:33:00,
2013-10-21 23:38:00,53.8,50.9,30.05,WNW,291,0.0,0.0,90,0.00,CLR,,0.00,WeatherDisplay:10.37,2013-10-22 04:38:00,
2013-10-21 23:43:00,54.0,51.7,30.05,WNW,291,0.0,0.0,92,0.00,CLR,,0.00,WeatherDisplay:10.37,2013-10-22 04:43:00,
2013-10-21 23:48:00,54.0,51.7,30.05,WNW,291,0.0,0.0,92,0.00,CLR,,0.00,WeatherDisplay:10.37,2013-10-22 04:48:00,
2013-10-21 23:53:00,54.0,51.7,30.05,WNW,291,0.0,0.0,92,0.00,CLR,,0.00,WeatherDisplay:10.37,2013-10-22 04:53:00,
2013-10-21 23:58:00,53.6,51.3,30.05,WNW,291,0.0,0.0,92,0.00,CLR,,0.00,WeatherDisplay:10.37,2013-10-22 04:58:00,